CW5084 Weather Reports


Display with metric or nautical units.
time (UTC)temp
F
wind
direction
speed
MPH
gust
MPH
rain 1hr
in
rain 24hr
in
rain mn
in
humidity
%
barometer
mb
20260509161028 51 195 2.0 12.0 0.00 0.03 0.02 86 1006.9
20260509160057 51 195 11.0 13.0 0.00 0.03 0.02 87 1006.9
20260509155027 51 186 5.0 12.0 0.00 0.03 0.02 87 1006.9
20260509154027 50 190 7.0 12.0 0.00 0.03 0.02 88 1006.9
20260509153027 50 181 4.0 9.0 0.00 0.03 0.02 89 1007.1
20260509152027 49 186 5.0 9.0 0.00 0.03 0.02 89 1007.1
20260509151027 49 193 3.0 9.0 0.00 0.03 0.02 90 1007.2
20260509150027 49 196 7.0 12.0 0.00 0.03 0.02 89 1007.2
20260509145027 49 176 1.0 8.0 0.00 0.03 0.02 90 1007.2
20260509143027 49 188 4.0 9.0 0.00 0.03 0.02 90 1007.3
20260509141027 49 186 4.0 8.0 0.00 0.03 0.02 91 1007.4
20260509140057 48 190 3.0 8.0 0.00 0.03 0.02 91 1007.4
20260509135027 48 186 4.0 8.0 0.01 0.03 0.02 91 1007.5
20260509134027 48 188 7.0 10.0 0.01 0.04 0.02 92 1007.6
20260509133027 48 165 5.0 7.0 0.01 0.05 0.02 92 1007.6
20260509132027 47 167 4.0 10.0 0.01 0.07 0.02 91 1007.4
20260509131027 47 178 2.0 10.0 0.02 0.07 0.02 92 1007.5
20260509130057 47 189 2.0 10.0 0.02 0.07 0.02 92 1007.6
20260509125027 47 186 3.0 7.0 0.01 0.06 0.01 92 1007.8
20260509123027 46 189 4.0 7.0 0.01 0.06 0.01 91 1008.0
20260509122027 46 188 5.0 6.0 0.01 0.06 0.01 91 1008.0
20260509121057 46 191 1.0 8.0 0.00 0.05 0.00 90 1008.2
20260509120027 46 192 2.0 10.0 0.00 0.05 0.00 90 1008.2
20260509115057 45 199 9.0 10.0 0.00 0.05 0.00 90 1008.6
20260509114056 45 273 3.0 7.0 0.00 0.05 0.00 89 1008.6
20260509112056 45 292 0.0 2.0 0.00 0.05 0.00 87 1008.5
20260509110056 44 292 0.0 2.0 0.00 0.05 0.00 87 1008.5
20260509105026 44 292 1.0 2.0 0.00 0.05 0.00 86 1008.6
20260509104056 43 292 1.0 2.0 0.00 0.05 0.00 86 1008.3
20260509103056 43 292 0.0 2.0 0.00 0.05 0.00 85 1008.4
20260509102056 43 292 2.0 3.0 0.00 0.05 0.00 85 1008.4
20260509101056 43 292 3.0 5.0 0.00 0.05 0.00 84 1008.4
20260509100056 43 295 3.0 4.0 0.00 0.05 0.00 84 1008.4
20260509095056 42 295 2.0 3.0 0.00 0.05 0.00 82 1008.2
20260509094026 42 295 0.0 3.0 0.00 0.05 0.00 83 1008.0
20260509093026 41 295 0.0 3.0 0.00 0.05 0.00 82 1007.9
20260509091056 41 295 1.0 3.0 0.00 0.05 0.00 81 1008.2
20260509090056 41 295 2.0 3.0 0.00 0.05 0.00 80 1008.3
20260509085056 41 295 1.0 2.0 0.00 0.05 0.00 79 1008.6
20260509084056 41 295 0.0 1.0 0.00 0.05 0.00 77 1008.7
20260509083026 41 295 0.0 0.0 0.00 0.05 0.00 76 1008.9
20260509082056 41 295 0.0 1.0 0.00 0.05 0.00 76 1008.8
20260509081056 41 295 0.0 1.0 0.00 0.05 0.00 75 1008.8
20260509080056 41 295 0.0 0.0 0.00 0.05 0.00 74 1008.9
20260509075056 42 295 0.0 3.0 0.00 0.05 0.00 74 1008.8
20260509074026 41 295 3.0 3.0 0.00 0.05 0.00 73 1008.9
20260509073026 41 295 0.0 3.0 0.00 0.05 0.00 73 1009.0
20260509072026 41 295 1.0 3.0 0.00 0.05 0.00 72 1008.9
20260509070056 43 295 2.0 4.0 0.00 0.05 0.00 69 1009.1
20260509065055 43 295 0.0 2.0 0.00 0.05 0.00 67 1008.9
20260509064056 42 295 1.0 2.0 0.00 0.05 0.00 68 1009.0
20260509063055 42 295 1.0 2.0 0.00 0.05 0.00 69 1009.1
20260509062026 41 295 0.0 2.0 0.00 0.05 0.00 71 1009.2
20260509061055 41 295 0.0 2.0 0.00 0.05 0.00 72 1009.3
20260509055025 41 295 0.0 3.0 0.00 0.05 0.00 73 1009.5
20260509054055 41 295 0.0 3.0 0.00 0.05 0.00 73 1009.7
20260509053025 41 295 0.0 3.0 0.00 0.05 0.00 74 1009.9
20260509052025 40 295 3.0 3.0 0.00 0.05 0.00 80 1009.7
20260509051025 39 295 0.0 0.0 0.00 0.05 0.00 85 1009.9
20260509045026 39 295 0.0 0.0 0.00 0.05 0.00 84 1009.7
20260509044055 39 295 0.0 0.0 0.00 0.05 0.00 84 1009.8
20260509043055 39 295 0.0 0.0 0.00 0.05 0.00 83 1009.8
20260509042025 39 295 0.0 1.0 0.00 0.05 0.00 82 1009.8
20260509041055 38 295 0.0 0.0 0.00 0.05 0.00 82 1009.8
20260509040025 38 295 0.0 0.0 0.00 0.05 0.00 83 1009.8
20260509035055 38 295 0.0 0.0 0.00 0.05 0.05 84 1009.8
20260509034055 37 295 0.0 0.0 0.00 0.05 0.05 83 1009.7
20260509033055 37 295 0.0 0.0 0.00 0.05 0.05 84 1009.7
20260509032054 37 295 0.0 0.0 0.00 0.05 0.05 82 1009.8
20260509031055 37 295 0.0 0.0 0.00 0.05 0.05 81 1009.8
20260509030055 37 295 0.0 3.0 0.00 0.05 0.05 81 1009.8
20260509025055 37 295 0.0 0.0 0.00 0.05 0.05 81 1009.8
20260509024054 36 295 0.0 0.0 0.00 0.05 0.05 81 1009.9
20260509023055 36 295 0.0 0.0 0.00 0.05 0.05 80 1009.9
20260509022025 37 295 0.0 0.0 0.00 0.05 0.05 80 1010.0
20260509021055 37 295 0.0 0.0 0.00 0.05 0.05 78 1010.0
20260509020054 38 295 0.0 0.0 0.00 0.05 0.05 77 1010.1
20260509015054 38 295 0.0 2.0 0.00 0.05 0.05 76 1009.8
20260509014054 39 295 0.0 3.0 0.00 0.05 0.05 75 1009.8
20260509012054 40 295 2.0 4.0 0.00 0.05 0.05 73 1009.6
20260509011054 40 295 1.0 2.0 0.00 0.05 0.05 72 1009.3
20260509010054 41 295 0.0 2.0 0.00 0.05 0.05 70 1009.3
20260509004054 43 295 1.0 2.0 0.00 0.05 0.05 66 1009.5
20260509003054 44 295 0.0 2.0 0.00 0.05 0.05 64 1009.3
20260509002054 45 295 0.0 2.0 0.00 0.05 0.05 62 1009.4
20260509001054 46 295 1.0 2.0 0.00 0.05 0.05 60 1009.3
20260508235054 49 295 0.0 0.0 0.00 0.05 0.05 54 1009.3
20260508234054 49 295 0.0 3.0 0.00 0.05 0.05 52 1009.2
20260508233054 50 295 2.0 4.0 0.00 0.05 0.05 50 1009.3
20260508232054 50 295 2.0 4.0 0.00 0.05 0.05 47 1009.3
20260508231054 50 295 2.0 5.0 0.00 0.05 0.05 47 1009.2
20260508224054 50 290 3.0 9.0 0.00 0.05 0.05 46 1009.0
20260508223053 51 310 4.0 10.0 0.00 0.05 0.05 47 1009.0
20260508222054 51 311 3.0 10.0 0.00 0.05 0.05 46 1009.1
20260508220053 51 323 3.0 13.0 0.00 0.05 0.05 46 1009.2
20260508215053 51 305 4.0 11.0 0.00 0.05 0.05 49 1009.2
20260508214054 51 283 4.0 10.0 0.00 0.05 0.05 50 1009.3
20260508213054 51 269 9.0 13.0 0.00 0.05 0.05 48 1009.2
20260508211054 49 255 4.0 11.0 0.00 0.05 0.05 54 1009.2
20260508210053 51 248 5.0 11.0 0.00 0.05 0.05 49 1009.4
20260508205053 50 306 3.0 13.0 0.00 0.05 0.05 53 1009.6
20260508204053 50 294 11.0 15.0 0.00 0.05 0.05 55 1009.7
20260508203053 50 229 3.0 13.0 0.00 0.05 0.05 55 1009.6
20260508202054 50 215 6.0 15.0 0.00 0.05 0.05 53 1009.6
20260508201053 50 215 5.0 14.0 0.00 0.05 0.05 52 1009.6
20260508200053 49 282 7.0 15.0 0.00 0.05 0.05 57 1009.8
20260508195053 49 266 9.0 15.0 0.00 0.05 0.05 55 1010.0
20260508194053 49 250 7.0 12.0 0.00 0.05 0.05 59 1010.2
20260508193053 48 213 4.0 14.0 0.00 0.05 0.05 57 1009.9
20260508191053 48 214 4.0 9.0 0.00 0.05 0.05 66 1010.0
20260508190052 48 216 6.0 12.0 0.00 0.05 0.05 68 1010.2
20260508185053 47 202 5.0 12.0 0.00 0.05 0.05 68 1010.5
20260508184052 46 236 10.0 12.0 0.00 0.05 0.05 69 1010.5
20260508183052 46 219 9.0 14.0 0.00 0.05 0.05 69 1010.6
20260508182053 47 227 8.0 14.0 0.00 0.05 0.05 72 1010.5
20260508181053 46 246 5.0 16.0 0.00 0.05 0.05 73 1010.6
20260508175052 45 225 8.0 13.0 0.00 0.05 0.05 77 1010.4
20260508174052 45 209 10.0 10.0 0.01 0.05 0.05 77 1010.6
20260508173053 44 223 7.0 13.0 0.01 0.05 0.05 79 1010.6
20260508171052 42 216 5.0 10.0 0.01 0.05 0.05 81 1010.5
20260508170052 41 228 3.0 13.0 0.01 0.05 0.05 82 1010.5
20260508165052 41 275 1.0 18.0 0.01 0.05 0.05 83 1010.3
20260508164052 41 202 2.0 7.0 0.00 0.04 0.04 85 1010.3
20260508163053 40 202 3.0 9.0 0.00 0.04 0.04 86 1010.3
20260508162052 40 200 7.0 9.0 0.00 0.04 0.04 87 1010.3